GFSFLT1_con_mlcape_000.txt.gz
CAPE
988 909 734 1009 1657 1522 1525 1175 465 326 547 462 57 41 131 104 58 0 0 1 0 0 0 0 0 1 1 3 28 67 155 243 310
1065 660 630 999 1360 1321 1190 480 399 430 494 339 52 45 224 172 113 67 2 6 32 4 0 0 0 6 10 30 70 180 290 207 172
1139 556 595 926 1039 1058 594 323 331 368 425 325 118 118 118 0 0 20 2 0 0 17 31 29 30 26 30 50 87 84 133 86 106
1022 561 389 720 997 1095 355 284 212 236 318 258 128 132 46 8 0 0 0 0 4 25 35 80 73 158 197 190 219 217 190 138 46
799 934 189 162 868 980 296 281 40 51 106 107 34 28 5 0 0 0 0 0 0 2 0 65 96 169 403 376 332 348 392 293 206
779 1080 457 99 443 585 328 296 97 19 64 0 0 0 0 0 0 0 0 0 0 0 29 73 169 340 304 205 395 364 361 399 190
596 882 667 322 319 378 386 286 276 238 63 0 0 0 0 0 0 0 0 0 0 34 131 211 379 424 397 474 524 484 477 400 177
386 482 591 535 445 389 516 446 403 273 99 22 9 0 0 0 0 47 0 64 175 201 168 135 277 274 382 399 410 478 516 157 167
107 405 533 616 570 503 567 470 335 55 69 3 37 92 11 0 73 234 320 175 241 211 117 92 210 260 287 447 512 161 0 0 103
5 164 474 476 547 578 563 364 8 6 8 0 84 176 46 58 274 301 286 76 142 148 243 274 189 215 309 455 500 238 0 0 74
0 17 342 491 546 598 478 44 0 1 0 42 163 179 154 164 276 325 330 144 106 139 279 236 181 224 386 372 325 179 15 0 99
38 146 419 551 582 508 149 12 0 15 68 66 80 107 172 156 267 372 416 278 264 320 265 123 108 262 423 388 354 116 113 0 156
162 303 522 604 436 186 103 64 29 142 169 202 123 101 135 82 235 447 355 331 291 279 267 168 247 276 403 475 274 269 117 48 171
211 328 427 481 304 106 92 281 294 170 253 262 231 151 87 104 465 701 710 350 348 299 410 371 376 487 503 343 154 400 92 19 137
313 322 307 383 270 196 313 648 777 712 651 605 424 287 352 684 726 689 254 623 447 314 431 140 412 560 464 202 192 232 45 0 0
428 383 309 291 373 642 874 920 1100 993 1050 1002 856 1205 789 350 119 371 793 662 535 355 280 212 143 240 195 226 189 149 21 0 8
492 486 475 484 550 587 594 615 804 1004 1132 1383 885 593 290 304 598 724 777 441 364 345 192 290 312 239 196 143 136 151 1 0 4
166 232 256 256 322 455 557 773 857 767 685 457 440 431 452 600 503 477 473 499 184 205 0 26 29 181 120 101 48 0 0 0 0
193 321 303 376 407 459 473 376 383 455 514 546 579 520 396 328 255 213 131 175 29 0 0 0 0 0 0 0 0 0 0 0 0
75 279 380 503 490 385 385 334 390 373 427 430 475 426 303 152 58 63 249 379 125 0 0 0 0 0 0 0 0 0 0 0 0

GFSFLT1_con_mlcape_003.txt.gz
CAPE
339 511 449 509 812 1101 1526 1301 1167 418 843 897 520 77 189 249 246 0 5 2 29 0 0 0 0 6 1 6 21 44 118 173 173
561 631 761 666 862 1529 1370 1226 817 435 616 671 320 87 510 447 257 176 68 93 102 1 11 12 14 3 10 55 37 55 71 62 225
245 791 990 722 776 1532 1204 1215 533 276 377 481 272 193 291 3 0 38 133 72 61 68 56 65 49 19 21 64 100 172 202 155 136
175 625 1122 660 837 1178 1161 972 429 95 299 376 361 293 255 38 0 0 24 1 1 18 73 118 113 59 56 158 216 222 315 299 298
64 834 1270 790 964 1075 1072 638 402 102 55 157 220 128 142 2 16 39 2 0 0 0 2 9 52 60 142 185 220 217 349 404 372
60 623 1192 885 980 1157 1279 617 523 125 17 20 35 58 111 15 54 86 92 93 3 0 0 17 80 106 122 197 276 351 469 479 443
50 362 931 829 680 1153 1610 757 648 115 46 22 17 27 0 0 35 198 183 132 50 102 133 140 128 117 151 196 304 398 549 569 558
12 245 777 1006 561 745 1625 870 817 318 104 55 24 23 16 16 72 257 367 277 189 161 149 110 108 107 173 112 178 170 559 629 431
0 0 468 1032 975 719 1217 866 727 469 142 115 193 211 144 81 87 216 345 345 258 214 157 102 139 135 139 271 220 149 211 175 249
0 0 114 604 1103 1159 1105 880 807 425 128 196 119 315 333 229 281 485 470 217 188 166 194 243 327 234 176 242 412 157 200 66 99
11 4 0 406 922 1213 1019 1002 778 122 126 254 208 399 440 395 416 475 463 370 265 245 277 390 364 266 239 342 332 151 143 96 153
176 247 261 404 835 1066 1104 926 423 77 134 129 316 497 543 557 472 498 556 470 442 314 488 298 317 281 235 444 603 369 169 124 204
314 526 702 819 919 1047 1109 686 51 103 292 379 353 550 509 481 426 391 563 528 546 513 557 332 259 170 206 321 485 550 98 56 126
435 615 916 1007 994 999 953 305 100 217 345 482 592 543 469 523 463 492 550 787 647 298 600 515 553 283 456 550 458 241 74 0 37
447 643 862 952 896 721 470 331 487 574 887 963 871 812 636 529 530 702 239 415 789 907 573 535 494 122 159 40 0 204 45 0 0
637 670 753 791 741 616 475 505 942 1321 1469 1527 1386 1175 1005 830 1076 458 365 466 968 777 522 447 139 167 88 146 108 123 11 0 0
871 803 737 664 673 708 897 1271 1558 1725 1638 1500 1627 1661 1570 1518 1072 917 864 907 694 426 323 184 107 78 164 51 169 47 0 0 0
1065 1028 947 909 907 843 876 1266 1309 1400 1565 1867 1641 1243 896 647 517 646 544 599 317 226 0 3 12 33 27 22 35 0 0 0 0
720 751 592 576 345 476 1041 1004 1106 1105 1086 1072 1015 843 686 476 372 311 172 178 4 0 0 0 0 0 0 0 0 0 0 0 0
599 450 133 48 340 498 662 878 920 868 829 774 786 742 420 245 82 91 266 446 429 158 0 0 0 0 0 0 0 0 0 0 0

GFSFLT1_con_mlcape_006.txt.gz
CAPE
69 17 313 457 643 535 993 1323 1859 1733 1472 982 632 229 35 19 66 70 127 315 223 26 0 36 12 90 96 79 140 84 59 3 59
207 119 75 417 748 940 1283 1438 1706 1430 1289 1177 720 205 401 476 349 229 123 185 157 64 199 105 128 89 40 101 95 31 19 47 2
35 185 292 263 523 1174 1667 1589 1608 1188 1127 1336 560 383 565 580 264 180 275 218 118 152 140 166 214 189 179 125 178 205 74 5 74
0 19 298 733 758 1389 1811 1413 1448 807 899 1159 585 275 449 175 0 0 120 111 67 63 190 223 269 246 201 185 190 252 105 56 138
0 88 164 1143 1010 1660 1790 1440 1289 666 506 705 581 419 405 278 86 21 15 21 48 61 91 91 91 149 178 157 233 226 23 103 207
39 50 612 1456 1291 1210 1772 1593 1396 697 331 344 429 410 303 175 112 147 189 185 210 131 104 70 230 233 159 116 180 274 248 320 234
0 214 203 1348 1411 1295 1627 1669 1297 784 338 119 193 246 296 256 228 279 318 308 405 174 256 312 336 278 238 143 310 307 391 340 340
0 15 304 1118 1279 1484 1699 1712 1159 927 391 174 98 69 72 79 168 313 465 496 386 320 324 414 384 197 310 466 482 313 243 329 246
0 0 0 180 1491 1233 2154 1880 1278 773 378 355 87 176 151 170 259 356 434 603 699 528 550 399 317 274 347 249 383 108 99 91 196
0 0 0 9 634 1479 2342 1825 1289 636 517 350 171 309 269 299 352 393 515 612 544 554 354 331 378 346 433 386 358 404 166 96 132
0 0 1 20 440 1135 1858 1634 1175 1055 648 294 478 547 607 587 591 613 724 739 545 512 518 479 357 386 448 330 353 318 85 125 202
11 65 263 312 106 757 1790 1479 1179 1109 575 465 625 646 711 820 758 770 822 879 717 582 562 408 505 474 394 357 273 250 149 56 218
130 207 414 444 547 944 1818 1497 1355 1009 474 621 631 678 915 1020 951 965 921 896 681 712 616 369 36 376 549 540 468 89 77 5 0
211 321 701 994 1019 1332 1797 1448 1142 621 406 605 806 922 1033 999 1087 1079 956 957 876 821 463 42 417 577 426 481 322 77 3 36 26
191 299 672 1026 1369 1656 1592 1272 1010 411 551 834 1211 1139 1042 1116 1178 976 796 787 671 503 406 506 553 383 330 76 123 88 10 46 11
354 353 582 1024 1266 1488 1341 974 539 909 1225 1542 1678 1661 1551 1312 1284 1005 1019 813 405 623 643 550 418 276 167 121 56 34 30 0 0
599 381 662 697 1211 1417 873 1232 1476 1847 1963 1862 1867 1940 2119 1774 1535 1468 1239 767 911 774 686 272 217 128 101 89 55 4 0 0 0
832 621 646 352 831 787 400 189 150 304 1056 1533 2199 2282 2096 1708 1483 1187 903 163 81 349 0 0 5 0 0 0 0 0 0 0 0
1017 20 771 211 205 184 0 0 66 2 6 753 1219 1238 1140 1009 915 411 506 101 0 0 0 0 0 0 0 0 0 0 0 0 0
692 632 376 42 0 0 0 1 296 858 730 744 844 834 738 455 152 210 394 385 479 214 0 0 0 0 0 0 0 0 0 0 0

GFSFLT1_con_mlcape_009.txt.gz
CAPE
27 36 61 179 307 425 1089 1396 1951 2076 1813 1390 141 84 3 0 0 0 0 204 77 0 0 0 39 2 49 3 8 37 71 8 1
3 0 38 47 171 292 948 1348 1948 1754 1731 845 185 31 0 0 1 0 45 16 0 0 118 0 6 6 0 3 77 129 78 11 0
62 8 60 117 170 402 959 1434 1728 1653 1433 528 105 231 7 64 167 104 11 21 0 0 0 0 2 43 66 64 9 3 109 13 0
78 103 185 303 490 532 1023 1500 1582 1418 1161 674 152 238 71 211 328 148 36 36 0 0 0 123 106 89 58 38 50 111 178 82 12
0 50 95 132 216 712 1252 1474 1343 1156 1026 643 140 262 185 279 2 0 5 11 0 0 0 0 8 0 3 17 16 10 21 19 14
0 0 127 200 98 53 1411 1349 1076 1003 915 711 270 69 307 175 49 15 6 6 4 7 4 3 0 6 31 32 0 0 23 127 84
2 0 422 653 944 1059 1254 1316 981 834 684 525 311 178 223 178 74 18 22 40 66 84 58 24 70 178 61 74 82 103 172 171 136
0 34 302 1067 1189 1687 1439 1317 933 713 413 359 312 279 233 187 91 47 90 104 151 257 73 106 99 162 153 54 177 265 93 49 81
0 0 0 228 1372 1380 1546 1418 994 684 319 214 143 211 192 159 105 43 54 87 150 206 153 116 330 133 94 100 235 152 76 66 58
0 0 0 0 0 1173 1472 1494 1162 540 140 89 166 156 113 44 14 14 67 166 249 460 399 450 104 108 277 52 230 252 88 108 37
0 0 0 0 0 513 1737 1511 1037 449 274 101 5 0 48 58 64 122 168 280 346 351 398 221 174 193 109 173 337 273 193 46 39
0 30 131 164 132 1082 1784 1561 1070 566 283 68 21 1 56 171 170 178 274 434 528 520 474 330 309 312 141 308 229 65 35 13 0
97 122 159 107 198 835 1495 1437 844 632 376 298 240 153 274 371 444 465 534 629 656 713 569 394 413 179 39 149 56 28 1 0 0
189 183 288 324 362 1323 1661 1217 888 597 452 535 340 339 502 680 726 752 751 772 774 765 617 384 219 79 293 211 144 11 0 0 0
200 251 382 586 1011 1379 1697 1183 904 606 595 615 582 642 819 919 1045 1050 981 941 933 864 606 228 82 198 256 124 35 0 0 0 6
0 287 334 807 1564 1627 1205 844 641 272 0 1 356 1241 1235 1366 1408 1292 1111 1023 811 501 141 105 35 128 173 67 0 0 0 0 0
163 872 905 969 795 388 75 3 132 0 0 1 0 1 110 3 19 1292 1096 539 345 321 219 109 130 80 15 7 0 0 0 0 0
818 970 743 769 286 187 131 57 94 0 0 0 0 0 0 0 720 684 274 89 112 135 0 0 0 0 0 0 0 0 0 0 0
651 510 338 98 87 19 1 34 10 0 0 0 1 6 25 619 649 579 187 0 0 0 0 0 0 0 0 0 0 0 0 0 0
595 307 216 105 78 1 0 0 0 0 0 0 142 743 381 370 190 152 126 10 0 0 0 0 0 0 0 0 0 0 0 0 0

GFSFLT1_con_mlcape_015.txt.gz
CAPE
87 139 579 732 759 746 620 687 821 1040 1042 892 895 865 801 543 26 0 0 0 0 0 0 0 0 0 0 0 0 0 0 0 0
45 93 439 695 842 799 699 786 900 1052 1189 1094 827 584 566 103 0 0 0 0 0 0 0 0 0 0 0 0 0 0 0 0 0
16 54 221 571 845 800 854 979 1017 1170 1368 1256 962 432 512 82 0 0 0 0 0 0 0 0 0 0 0 0 0 0 0 0 0
17 41 107 269 586 639 732 1157 1228 1229 1511 1373 886 633 475 49 0 0 0 0 0 0 0 0 0 0 0 0 0 0 0 0 0
18 48 78 168 303 417 415 810 1190 1307 1437 1308 864 642 392 8 0 0 0 0 0 0 0 0 0 0 0 0 0 0 0 0 0
0 16 57 121 203 336 448 537 897 1352 1492 1243 773 541 266 0 0 0 0 0 0 0 0 0 0 0 0 0 0 0 0 0 0
1 0 4 49 204 318 390 451 797 1410 1532 1279 716 407 223 0 0 0 10 6 0 0 0 0 0 0 0 0 0 0 0 0 0
0 0 0 17 68 176 281 371 723 1382 1490 1247 819 527 240 0 0 0 42 116 49 12 3 0 30 1 4 0 3 40 0 0 0
0 0 0 48 75 87 194 372 736 1173 1374 1232 839 630 229 0 0 3 8 75 0 5 0 3 0 57 44 26 53 80 0 26 0
0 0 0 2 72 125 203 517 859 1039 1197 1143 848 419 127 1 11 66 0 0 3 0 0 0 27 76 124 95 105 32 7 24 12
0 0 5 67 144 267 308 273 629 906 1044 1054 847 297 146 20 0 55 32 22 76 50 7 36 51 147 216 210 182 38 18 57 36
0 0 0 0 0 4 161 400 573 775 840 897 758 363 277 284 215 23 24 69 192 146 156 134 211 246 257 199 110 23 24 6 13
0 0 0 0 0 14 47 220 764 868 841 869 891 396 188 190 85 53 84 163 257 244 197 211 219 207 212 111 105 44 22 0 0
6 24 32 75 207 146 228 526 655 682 788 825 591 351 200 171 58 110 119 82 127 175 221 166 238 200 106 123 26 0 4 7 0
10 83 168 337 347 496 647 778 515 686 750 441 342 340 347 217 155 205 110 85 6 0 4 37 103 121 117 36 0 0 6 0 0
39 155 70 91 270 462 587 631 759 833 437 151 115 117 60 8 0 3 5 9 1 0 0 10 105 106 45 1 0 0 0 0 0
228 304 249 246 331 360 509 350 341 313 71 78 136 113 10 0 0 0 0 0 0 8 5 50 62 74 50 0 0 0 0 0 0
545 458 502 527 554 515 437 269 180 62 47 114 123 38 0 0 0 0 0 0 0 1 3 2 37 17 0 0 0 0 0 0 0
693 678 601 686 645 535 309 40 3 0 0 0 0 0 0 0 0 0 0 0 0 0 0 0 0 0 0 0 0 0 0 0 0
625 666 717 611 467 271 31 19 11 0 0 0 0 0 0 0 0 0 11 0 0 0 0 0 0 0 0 0 0 0 0 0 0

GFSFLT1_con_mlcape_021.txt.gz
CAPE
149 130 139 169 244 278 345 397 509 557 597 677 864 902 1097 1497 1650 1711 1371 1193 467 210 99 28 63 87 160 117 0 0 0 0 0
99 153 224 194 274 354 434 513 538 638 684 725 805 915 1069 1269 1517 1578 1276 989 461 208 24 13 15 48 66 35 0 0 1 0 7
48 114 233 328 417 483 546 621 675 737 782 768 863 967 1144 1341 1418 1336 1373 623 179 3 16 22 49 41 76 16 0 4 1 0 0
0 32 123 281 548 648 646 687 791 859 885 930 1015 1004 1105 1252 1223 1062 496 416 9 0 0 0 53 29 9 42 41 40 15 0 8
0 0 35 242 602 767 755 820 834 888 1001 1036 1079 1181 1216 1075 763 344 594 159 7 0 0 0 0 1 21 62 66 44 44 29 11
0 16 33 183 528 738 836 909 976 998 1112 1175 1300 1383 1263 947 231 395 295 0 0 0 2 17 5 4 27 36 75 70 71 20 10
0 20 68 142 339 684 905 1054 1102 1152 1214 1348 1471 1556 1263 697 209 351 213 0 0 0 0 0 0 0 0 10 32 75 70 36 30
31 21 79 126 173 394 804 1052 1170 1290 1392 1521 1535 1769 1327 851 329 247 99 0 0 0 0 0 0 0 0 3 34 48 10 37 85
22 42 86 116 193 353 556 819 932 1266 1481 1655 1766 1607 1322 817 388 360 174 1 0 0 0 0 0 0 1 28 23 18 0 37 224
0 72 98 163 243 363 484 617 827 928 1235 1674 1727 1507 1232 599 520 514 278 1 0 0 0 0 0 0 4 73 81 37 24 32 214
0 88 189 241 230 341 452 533 659 890 1248 1534 1462 1351 1000 674 561 487 274 14 0 0 0 0 0 0 37 166 189 64 69 83 212
0 21 86 142 148 203 201 361 661 938 1222 1426 1469 1227 937 801 653 527 239 27 0 0 0 12 6 27 110 134 248 90 32 22 31
0 22 102 177 212 296 393 382 739 716 851 1027 1018 1153 977 845 686 526 284 87 14 11 2 1 110 80 87 44 156 68 16 0 7
25 60 138 242 381 355 394 453 393 362 516 542 876 1139 998 802 641 435 294 169 111 102 93 135 139 53 93 100 154 31 7 0 0
279 304 364 370 241 283 472 588 684 485 563 1155 1169 928 880 799 680 428 326 265 285 298 308 285 206 185 89 179 149 29 4 1 4
99 157 198 265 174 269 533 657 647 492 392 638 705 932 878 735 603 489 387 345 458 448 368 454 256 65 103 95 9 9 1 0 0
187 258 261 394 236 195 377 577 541 644 573 779 799 824 796 735 716 675 621 596 544 431 271 243 107 5 9 7 9 7 0 0 0
361 413 343 326 418 491 499 574 678 624 467 389 614 667 638 597 394 233 0 0 0 0 0 0 3 24 37 60 108 22 0 0 0
538 488 430 487 494 506 449 448 467 392 267 359 421 342 225 169 59 0 0 0 0 0 0 0 0 0 57 0 2 0 0 0 0
223 459 483 548 516 349 378 403 406 262 256 274 176 2 0 0 0 0 0 0 0 0 0 0 0 0 0 0 0 0 0 0 0

GFSFLT1_con_mlcape_024.txt.gz
CAPE
170 337 213 89 185 239 304 476 827 1092 1579 2131 2280 2058 2219 2437 2539 2310 2282 2356 1606 687 62 104 375 565 468 437 405 260 51 0 5
76 269 354 340 357 487 542 772 1133 1426 1677 2048 2144 1959 2291 2376 2527 2399 1979 2065 2307 1105 540 144 278 430 421 431 381 142 53 5 24
49 104 268 379 477 547 738 891 1137 1490 1835 1853 1952 1867 2026 2050 2279 2433 2338 2366 2155 1151 657 213 179 281 301 309 272 110 175 14 10
6 34 136 362 511 589 861 983 1117 1496 1768 1935 1981 1938 1952 2019 2020 2237 2486 2179 1913 1205 511 208 158 194 206 287 171 179 216 92 0
0 0 54 174 527 686 797 1108 1172 1371 1602 1824 1983 2044 2277 2129 2069 2200 2243 2007 1272 641 125 12 10 77 12 85 201 254 186 114 2
0 196 159 174 459 763 934 1176 1428 1380 1608 1698 1842 2015 2146 2168 2168 2091 1683 1191 782 163 0 0 0 0 0 20 233 265 218 209 138
0 25 359 445 534 807 1136 1311 1718 1782 1640 1690 1788 1922 2073 2255 2302 1876 1467 1370 461 12 0 0 0 0 0 10 203 173 122 240 179
0 223 566 566 730 1015 1392 1566 1801 1951 1844 1840 1786 1951 2058 2252 2360 1649 1280 1612 583 20 0 0 0 0 0 139 151 25 125 159 180
0 69 659 768 900 1153 1574 1791 2031 2079 2004 1947 1963 2080 2260 2404 2227 1367 1499 1297 607 130 2 0 20 0 4 71 1 0 11 161 105
0 4 348 662 920 1083 1625 1861 2100 2129 2149 2108 2220 2349 2577 2480 2197 1635 1389 1291 867 442 34 1 162 112 139 79 42 10 9 22 58
14 34 97 669 1006 1218 1619 1702 1933 1957 2116 2316 2468 2605 2633 2476 2207 1653 1518 1380 1008 511 77 16 98 170 246 289 142 184 52 19 58
45 70 240 574 997 1198 1534 1441 1671 1844 1992 2301 2526 2552 2503 2344 1858 1743 1638 1455 1143 621 333 112 160 218 314 408 407 225 103 54 112
1 35 392 837 816 949 1327 1394 1588 1884 2118 2363 2308 2251 2270 2050 1838 1805 1725 1267 1146 816 579 333 367 401 607 330 523 86 45 96 235
250 455 738 877 915 1081 1319 1480 1833 2037 2074 2101 2183 2179 2101 2023 1855 1608 1408 1305 937 739 615 467 546 577 543 503 528 561 22 20 130
619 831 1020 1306 1526 1540 1312 1813 2071 2092 2067 2246 2283 2159 1927 1723 1662 1446 1166 992 702 503 383 335 436 649 537 476 733 365 0 3 0
816 921 1009 1218 1402 1553 1762 1938 1942 1526 1420 1764 1648 1731 1747 1417 1115 1135 992 775 702 535 479 489 595 691 622 555 537 178 1 1 0
588 685 736 880 1083 1297 1413 1546 1733 1363 1532 1711 1488 1621 1459 1118 978 825 725 772 728 692 618 601 608 648 550 260 129 29 4 1 0
823 890 1131 1324 1416 1247 1449 1669 1471 1538 1343 1485 1443 1337 1201 940 762 589 352 5 65 343 12 159 550 145 71 93 98 104 3 1 45
998 812 1005 956 1153 1289 1171 1404 1164 985 1377 1206 1218 1141 1041 864 736 620 537 89 0 0 0 0 0 0 119 0 3 0 0 0 0
883 1099 1233 1151 894 1124 1298 1056 996 1070 835 919 870 855 719 393 366 267 167 25 0 0 0 0 0 0 0 0 0 0 0 0 0

GFSFLT1_con_mlcape_027.txt.gz
CAPE
114 443 332 163 201 117 215 446 873 1092 1539 2785 3417 3328 3147 3242 3290 2328 2076 1920 1394 1008 264 96 1077 1306 1297 737 582 328 230 46 24
49 185 359 320 220 169 92 262 715 1016 1322 2513 3224 3171 3469 3326 3313 2806 1749 1737 2231 1691 755 165 1070 1059 835 765 458 317 209 116 75
0 16 111 336 349 306 254 155 477 1028 1396 2528 3081 3101 3403 3151 3150 3169 2801 2734 2604 1952 1290 407 596 775 815 667 368 317 276 93 137
11 16 44 153 424 495 600 471 518 994 1652 2265 3051 3108 3090 2904 2952 2875 2970 2599 2660 2502 1930 1037 666 792 710 589 327 430 312 178 146
19 8 16 43 174 498 663 945 729 804 1227 1776 2551 2716 3161 3032 3023 2893 2795 2854 2805 2930 2180 1411 809 642 558 394 390 307 263 234 41
0 1 29 38 75 295 746 1219 1231 1073 1331 1227 1845 2602 2751 3145 3169 2980 2733 2955 2958 2847 2226 1364 663 474 360 15 317 229 482 327 219
0 0 2 195 167 65 776 1182 1609 1618 1470 1222 1566 2001 2394 2916 3273 3196 3034 3161 2942 2677 1939 1123 373 133 319 201 290 152 529 315 235
0 0 0 303 676 575 1329 1404 1997 1963 2091 1919 1727 2257 2536 2954 3414 3394 3381 2979 2829 2450 1716 822 463 239 160 289 21 178 419 147 224
0 0 0 173 900 984 1244 1662 2135 2493 2315 2329 2314 2594 2751 3011 3505 3516 3242 2873 2788 2219 1378 668 464 262 125 193 302 182 68 216 171
0 0 0 0 772 1289 1588 1784 2283 2523 2681 2651 2623 3018 2882 3238 3572 3492 3152 2760 2537 2316 1397 773 473 225 312 383 521 32 0 0 64
0 0 0 2 238 1202 1516 1819 2086 2447 2591 2802 2966 2941 3213 3459 3369 3312 2798 2422 2660 2361 1736 954 446 358 359 444 585 227 1 0 18
0 0 0 8 0 738 1453 1848 2335 2688 2842 2924 3091 3110 3361 3321 3318 3137 2783 2260 2415 2293 1957 1258 686 479 563 606 655 383 171 37 130
0 0 0 12 75 398 1467 2053 2176 2787 2811 3069 3165 3151 3323 3286 3077 2780 2436 2282 2207 2142 1771 1389 836 496 555 500 591 594 319 142 516
54 36 230 271 607 980 2018 2292 2436 2742 2794 2971 3042 3041 2975 2973 2659 2508 2489 2137 2198 1627 1168 843 712 509 413 469 605 700 277 154 656
474 466 775 731 1115 1402 2083 2353 2696 2813 3032 3135 2859 2632 2576 2597 2597 2375 2261 1884 1528 1197 865 867 813 632 530 748 965 740 123 69 100
915 1214 1395 1304 1550 2014 2134 2653 2989 2919 3071 2907 2777 2651 2681 2727 2550 2066 1743 1263 1060 930 804 970 861 749 925 1063 925 765 137 5 2
1410 1782 2096 2255 2065 2351 2593 2829 2976 3028 2874 2911 2746 2792 2342 2009 1715 1533 1293 986 893 982 841 798 765 758 834 1008 726 614 53 0 0
1062 1205 1601 1866 2115 2234 2384 2405 2378 2499 2493 2534 2328 1973 1867 1520 1459 1399 926 207 405 961 437 429 1012 615 475 352 390 166 0 0 3
1466 1565 1711 2023 2128 2088 2199 2184 2138 2284 2237 2100 1889 1609 1463 1069 923 797 696 394 5 0 0 0 0 0 145 0 33 0 0 0 0
1414 1425 1627 1839 1939 1899 1741 1833 1913 1859 1823 1814 1666 1434 1137 1056 987 936 691 489 190 0 0 0 0 0 0 0 0 0 0 0 0

GFSFLT1_con_mlcape_030.txt.gz
CAPE
63 324 328 385 364 252 785 955 1065 1335 2366 2885 3056 2797 3257 3011 2092 2786 2577 1826 2050 1204 1118 608 1108 1036 1524 1380 760 502 196 208 42
13 30 337 324 623 661 587 1025 1120 1245 2231 2786 3187 3404 3300 3403 3282 2441 2681 2319 1726 2071 1052 1295 1116 1168 1610 1265 940 492 399 189 114
19 1 259 347 331 655 627 843 1221 1367 1643 2830 3342 3523 3558 3360 3590 3412 2801 2423 2178 1531 1927 1135 1322 1190 1280 1032 910 645 524 160 238
20 0 255 405 370 419 525 589 1001 1319 1583 2496 3304 3654 3611 3554 3512 3785 3160 2734 2287 2624 1743 1419 1376 1159 1001 1226 1130 787 546 297 227
21 0 0 37 420 527 630 527 715 1119 1497 1624 2924 3506 3489 3597 3738 3729 3590 2545 3044 2955 2338 2091 1225 1092 1166 980 1054 759 694 100 102
0 6 8 33 266 610 775 678 596 779 1157 1477 2194 3191 3366 3544 3639 3583 3414 3308 2528 3046 2855 2576 1386 1109 964 1009 814 560 609 434 148
18 12 23 55 26 360 799 954 896 895 1089 1517 1833 2782 3086 3273 3612 3494 3362 3384 3296 3080 3332 3003 1847 1408 1110 938 702 659 673 661 563
9 3 4 7 82 277 411 1389 1387 1291 1290 1403 1721 2350 2840 3194 3665 3592 3578 3420 3486 3326 3366 3135 2242 1531 1219 980 533 613 494 654 612
0 15 6 100 213 540 474 1619 1919 1607 1595 1566 1577 1881 2567 2935 3369 3792 3795 3664 3536 3425 3300 2955 2195 1496 1052 787 450 376 212 585 506
142 38 0 32 576 895 1118 1847 2229 2073 1912 2121 1652 2003 2319 2738 3266 3786 3843 3827 3598 3508 3276 2725 1958 1336 881 515 468 135 69 460 474
55 74 2 5 0 894 1449 1727 2051 2823 2449 2475 2327 2439 2772 3065 3572 3972 4031 3893 3692 3400 3185 2436 1701 1085 729 487 601 470 119 126 147
0 0 17 97 22 31 1091 1525 1861 2423 3071 2704 2827 2822 3519 3627 3873 4264 4097 3813 3521 3089 3061 2201 1713 1040 689 650 811 446 246 2 3
0 0 0 0 15 18 162 1292 2136 2604 2803 3222 2973 3457 3466 3936 4303 4163 3919 3559 3151 3058 3044 2223 1503 1014 814 754 774 604 324 54 58
0 2 0 0 5 224 588 1558 2205 2940 3106 3367 3383 3706 3916 4059 4033 3994 3736 3018 2518 2468 2502 2214 1628 1104 817 761 706 721 439 198 432
331 434 468 310 399 511 2519 2259 2617 3407 3554 3699 3692 3597 3911 3824 3758 3211 2985 2523 2046 2113 2013 1734 1371 1034 796 741 656 585 516 325 219
821 969 1344 1341 1013 2490 3300 3506 3503 3555 3860 3683 3641 3575 3550 3214 2835 2675 2384 2085 2025 1539 1310 1123 990 847 760 662 879 930 599 231 25
1531 1853 2179 2186 2638 3138 3635 3692 3739 3971 3701 3394 3213 3186 3070 2931 2481 2116 1825 1600 1371 1074 922 905 1028 1040 1098 1017 904 652 151 27 0
1967 2283 2762 2815 3112 3273 3682 3848 3721 3632 3388 3258 3096 2989 2434 2041 1711 1409 608 186 332 888 383 586 882 1002 1127 1035 843 714 144 8 0
2159 2462 2589 2775 2913 2949 3130 3032 2779 2467 2909 3060 2589 2071 1759 1460 1158 737 404 382 157 0 0 0 4 200 414 0 83 0 0 0 0
1503 1789 1936 1864 1793 1857 2060 2666 2802 3071 2753 2397 1946 1542 1457 1349 1199 917 712 451 235 5 0 0 0 0 0 0 0 0 0 0 0

GFSFLT1_con_mlcape_033.txt.gz
CAPE
9 68 1 0 0 170 517 545 1020 1560 1529 1370 1593 1630 1268 1018 1650 2218 1383 1186 1685 940 775 449 675 696 710 721 354 119 116 50 8
4 5 112 24 22 62 477 564 1032 1440 1846 1688 1819 1860 1707 1327 1120 1433 2225 2051 1223 1629 863 685 505 973 1042 862 558 273 167 62 0
0 3 10 89 37 46 454 632 778 1368 2113 2027 2012 1974 2170 2024 1668 1616 1772 2343 2147 1210 1618 1158 800 875 1060 933 746 326 174 132 39
16 0 3 87 266 162 365 735 881 1035 2019 2270 2382 2262 2202 2376 2452 2139 2026 1900 2294 1662 1424 1455 1117 1013 1000 918 734 335 347 171 86
30 14 40 11 265 444 325 758 978 1119 1994 2246 2545 2596 2600 2480 2613 2968 2564 2230 2038 1999 1654 1497 1247 929 954 816 671 495 433 248 185
13 4 4 22 150 533 711 819 1097 1201 1752 2190 2394 2745 2878 2911 2811 2818 3030 2698 2575 2151 2009 1662 1404 1080 786 729 617 433 465 298 157
2 0 0 28 253 288 659 684 1069 1213 1427 2094 2457 2788 2913 2913 2962 2955 2960 3324 2825 2678 2523 2158 1706 1344 1015 803 775 573 626 464 273
5 2 39 17 285 413 564 568 715 1064 1392 1470 2326 2544 2850 2857 3016 3143 3259 3269 3284 2596 2812 2600 2014 1499 1181 988 854 711 598 472 345
28 61 41 78 196 588 625 616 594 803 1122 1425 1435 2314 2533 2969 2915 3287 3355 3312 3254 3125 2595 2891 2571 1840 1437 1089 971 822 653 366 379
35 10 22 28 64 199 683 764 793 800 855 1095 1383 1409 2341 2763 2979 3115 3324 3370 3295 3305 3044 3077 2905 2291 1749 1382 1062 703 561 519 422
19 18 24 3 157 243 332 1004 1183 990 969 1073 1408 1670 1901 2548 2755 3144 3402 3491 3443 3398 3320 3168 2797 2301 1895 1429 993 482 266 335 503
0 0 1 39 329 427 563 1434 1662 1617 1308 1352 1271 1662 1989 2496 2754 3166 3446 3596 3617 3497 3364 3042 2566 2082 1594 1283 815 522 232 64 84
0 0 0 0 0 0 821 1063 2189 2083 1834 1839 1644 1600 2021 2340 2795 3252 3591 3708 3679 3412 3166 2838 2148 1800 1411 1010 804 507 356 163 227
47 24 0 0 0 0 109 790 1888 2346 2314 2064 2410 2388 2907 2909 3236 3638 3861 3720 3495 3309 2850 2522 2184 1712 1260 909 775 606 464 265 271
658 768 819 775 132 40 116 109 1497 1795 2417 2672 2757 3399 3513 3884 3935 3945 3651 3370 3090 2823 2545 2177 1765 1379 1013 802 742 692 474 393 373
961 959 1074 1348 1897 1696 1905 1553 1429 1683 2750 3470 3539 3693 3867 3959 3672 3362 3089 2798 2208 2040 2112 1853 1498 1264 980 828 756 723 532 335 214
2155 2308 2387 2519 2862 2537 3000 3587 3511 3550 3809 3739 3676 3695 3481 3044 2821 2514 2124 1618 1611 1611 1541 1428 1310 1157 922 748 681 651 396 287 32
2705 2790 3314 3496 3490 3762 3792 3824 3866 3770 3668 3567 3396 3056 2440 2054 1697 1254 900 660 977 1159 757 923 1084 909 919 848 824 672 339 54 0
2529 2699 2923 3370 3705 3735 3706 3611 3478 3295 3047 2757 2520 2029 1724 1251 878 754 648 501 126 0 19 60 301 619 625 137 457 183 30 0 0
1805 2051 2257 2435 2672 2761 2929 2825 2581 2629 2415 1980 1847 1472 860 849 686 541 412 227 190 151 0 0 0 1 9 28 0 0 0 0 0

GFSFLT1_con_mlcape_036.txt.gz
CAPE
15 0 0 0 0 30 43 175 497 730 683 784 897 930 1062 1175 1006 717 634 827 618 696 694 936 766 852 853 465 107 4 0 0 0
6 0 0 0 0 1 70 187 545 719 766 767 1029 982 861 921 1115 1298 1372 1184 979 832 606 430 591 654 706 438 171 100 21 0 0
3 0 0 0 0 5 132 176 540 755 848 799 949 1137 1096 1005 890 1080 1601 1563 1313 971 496 503 369 532 501 433 288 228 114 16 2
43 6 9 0 0 0 77 329 464 1008 978 983 1041 1235 1322 1272 1095 829 1276 1739 1901 1495 1155 865 485 604 541 466 389 335 213 82 2
72 19 29 27 42 53 29 257 444 962 1311 1216 1207 1390 1416 1485 1451 1276 835 1288 1688 1910 1718 1222 967 704 794 700 590 478 377 102 24
22 21 0 37 108 31 25 206 461 795 1341 1516 1538 1686 1638 1763 1847 1776 1502 1173 1209 1449 1682 1542 1172 1067 993 837 734 628 482 130 42
59 33 25 1 25 101 160 290 512 601 1082 1799 1857 2001 1938 1848 1977 2099 2007 1907 1612 1491 1622 1721 1401 1237 1223 1033 789 691 512 258 121
108 85 9 13 0 0 132 328 612 731 837 1673 2080 2272 2241 2121 2144 2298 2361 2385 2278 2002 1780 1790 1613 1439 1183 998 838 734 572 420 170
57 13 0 0 0 0 96 307 692 808 925 1548 1995 2294 2392 2523 2542 2562 2520 2597 2694 2439 2184 2160 1807 1512 1295 1089 954 801 635 537 351
5 27 0 22 3 3 215 422 723 887 1029 1292 2050 2130 2434 2646 2757 2725 2726 2727 2842 2743 2455 2495 2164 1753 1520 1448 1322 1007 809 717 602
0 0 4 15 126 219 319 438 550 910 1105 1306 1635 2320 2403 2745 2810 2757 2863 2941 2879 2880 2706 2534 2421 2073 1829 1736 1646 1234 943 795 837
0 0 0 0 48 387 563 569 446 620 855 1201 1544 1766 2247 2422 2728 2688 2950 2923 2946 2944 2985 2701 2630 2278 2065 2061 1932 1453 1084 901 851
0 0 0 0 17 318 211 224 475 684 656 906 1171 1486 1561 2235 2644 2724 2856 2965 3016 3065 3064 2816 2572 2393 2301 2205 2188 1617 1061 552 417
0 0 0 0 0 10 246 583 1315 982 875 870 941 1196 1451 1592 2358 2563 2823 3067 3137 3125 3017 2666 2561 2458 1957 1552 1559 1248 790 281 315
198 55 16 0 0 0 0 222 852 1282 1219 1230 1234 1155 1367 1761 2140 2496 2836 3151 3217 3015 2910 2618 2326 1593 1100 913 972 667 332 188 316
869 801 668 886 101 0 0 3 996 1033 998 1415 1686 1628 1654 1911 2304 2717 3228 3257 3041 2899 2536 2285 1662 1430 1242 1067 859 559 304 247 271
1776 1500 1138 1551 1651 1103 865 1171 638 945 1553 1890 2076 2123 2678 2872 2947 3106 3150 3032 2714 2438 1882 1364 1098 1143 1279 1034 640 485 177 101 12
2443 2472 2590 2588 2459 2302 1927 2307 2209 2151 2293 2716 3063 3161 3155 3014 2521 2408 1552 993 1179 1541 830 821 592 1287 908 720 719 555 298 28 18
2456 2343 2783 3092 3358 3483 3287 3237 3163 3128 3119 3003 2761 2536 2232 1664 1266 361 361 23 33 3 95 481 648 820 589 203 425 270 85 0 0
2209 2389 2594 2749 2713 2801 2857 2538 2601 2307 2186 2155 2183 1619 1033 586 503 277 238 70 24 19 0 0 3 83 196 320 77 19 0 0 0

GFSFLT1_con_mlcape_042.txt.gz
CAPE
0 1 26 50 38 5 0 16 83 75 107 157 228 261 237 322 406 409 406 453 445 328 231 413 931 964 941 901 787 495 219 18 0
0 0 0 0 21 11 0 2 36 52 80 95 152 279 290 353 447 474 423 498 444 451 317 580 932 1045 1039 941 807 486 220 27 0
0 0 0 0 0 0 0 0 15 53 50 76 92 297 390 410 430 456 497 515 485 453 420 359 577 842 826 882 840 446 262 62 3
0 0 0 0 0 1 0 0 0 18 45 102 106 326 482 543 544 568 534 539 491 498 480 421 350 669 805 782 779 424 344 152 40
0 0 0 0 0 0 0 0 1 0 19 123 188 241 526 627 644 655 554 525 525 519 556 458 316 576 737 698 722 444 440 303 104
0 0 0 0 0 0 0 0 0 0 7 57 216 317 461 643 718 719 643 604 681 641 642 554 326 494 683 690 720 514 375 366 231
0 0 0 0 0 0 0 0 0 0 16 58 241 343 491 542 662 692 720 777 843 898 824 714 451 530 731 750 698 584 471 400 344
0 0 0 0 0 0 0 0 2 3 31 107 333 405 519 641 655 656 679 718 838 987 1079 975 751 504 704 668 668 628 563 475 431
0 0 0 0 0 0 0 0 0 0 47 164 339 466 482 682 821 835 781 763 741 800 985 1161 1073 893 721 751 793 717 660 658 574
0 0 0 0 0 0 0 0 4 29 74 301 444 510 584 735 894 986 1000 958 877 805 810 979 1137 1094 986 803 980 963 841 777 790
0 0 0 0 0 0 0 0 0 10 119 313 568 645 716 902 1044 1073 1181 1178 1139 1085 958 848 929 1115 1142 1108 1065 950 895 938 1010
0 0 0 0 0 0 0 0 43 55 142 293 644 843 1017 1074 1213 1214 1255 1392 1440 1418 1361 1261 1152 1143 1182 1132 1118 815 756 740 845
0 0 0 0 0 0 0 0 0 2 137 300 506 915 1109 1241 1318 1379 1385 1477 1638 1715 1725 1709 1681 1540 1389 1314 1304 849 792 755 846
0 0 0 0 0 0 0 0 0 0 1 214 462 769 1156 1411 1613 1665 1716 1718 1742 1856 1909 2050 2051 1965 1848 1501 1356 1182 824 794 931
0 0 0 0 0 0 0 0 0 23 80 230 491 787 1193 1403 1646 1878 2014 2022 2076 2127 2102 2124 2234 2230 2105 1614 1492 1283 674 699 929
0 0 0 0 0 0 0 0 45 117 247 359 680 900 1096 1474 1765 1987 2204 2340 2439 2482 2488 2448 2486 2427 2186 1827 1492 828 802 576 502
1074 1615 1219 997 393 522 1048 1448 418 442 596 732 576 500 699 931 1151 1706 2216 2539 2598 2632 2641 2599 2470 2367 2116 1566 1058 472 205 64 141
1845 2004 2165 2046 1986 2043 2141 2290 2422 2691 2396 1441 1023 955 857 886 896 725 799 1008 1539 1860 1126 2360 2150 1905 1181 731 367 9 0 2 4
1811 1731 1870 1777 1845 1806 1718 1658 1848 2217 2597 2384 2199 1980 1675 1099 614 456 770 784 230 40 30 0 0 0 0 0 0 0 0 0 19
699 675 655 648 728 820 810 1071 1458 1711 1987 2066 1988 1838 1462 1085 847 654 698 584 310 17 0 0 0 0 0 0 0 0 0 0 0

GFSFLT1_con_mlcape_045.txt.gz
CAPE
81 213 214 329 421 319 146 260 307 410 406 397 467 489 509 597 699 786 806 855 838 860 880 873 959 1212 1354 1385 1462 1367 1097 676 416
5 129 224 201 248 285 209 118 252 383 406 348 436 482 513 590 706 734 738 824 966 882 1013 972 841 956 1134 1450 1483 1445 1180 783 480
0 4 59 128 299 317 270 165 190 404 429 394 388 438 558 622 673 764 807 904 871 888 1043 1045 902 1097 1487 1761 1617 1507 1259 928 658
0 0 0 0 62 274 344 257 108 297 419 415 449 473 539 634 700 805 868 925 932 914 975 1064 1121 1015 1361 1590 1423 1426 1344 1071 706
0 0 0 0 0 6 135 276 193 180 394 427 433 480 585 647 786 898 871 915 990 989 913 1038 1129 1118 1072 1377 1501 1413 1273 1226 791
0 0 0 0 0 0 32 88 148 112 264 384 471 574 625 769 837 920 925 958 1074 1139 1020 1053 1087 1186 1139 1072 1354 1350 1244 1283 1008
0 0 0 0 0 0 5 42 91 78 187 345 458 611 647 743 874 939 959 1071 1155 1178 1123 1033 1053 1108 1185 1151 1173 1362 1246 1188 1136
0 0 0 0 0 0 9 18 66 87 126 324 426 678 701 759 938 1056 1162 1246 1213 1258 1289 1177 1103 1057 1155 1221 1109 1223 1240 1127 1114
0 0 0 0 0 0 16 50 68 101 142 232 419 598 643 807 1054 1180 1164 1292 1328 1339 1340 1370 1344 1159 1122 1195 1083 1000 938 1236 1174
0 0 0 0 0 0 0 0 85 98 161 334 466 580 674 895 1085 1137 1261 1351 1413 1408 1471 1612 1468 1381 1246 1208 1250 733 644 780 1273
0 0 0 0 0 0 0 0 21 134 249 393 541 630 787 1015 1149 1186 1345 1364 1330 1381 1487 1523 1686 1609 1524 1362 1352 912 577 606 1024
0 0 0 0 0 0 0 0 5 98 277 425 642 664 801 1000 1106 1210 1438 1433 1356 1428 1432 1434 1494 1729 1770 1656 1556 1053 745 611 899
0 0 0 0 0 0 0 0 28 69 210 447 568 741 822 1069 1195 1314 1382 1445 1564 1646 1592 1483 1487 1575 1826 1881 1840 1428 787 695 1076
0 0 0 0 0 0 0 0 0 5 150 308 554 912 1216 1366 1463 1442 1568 1743 1835 1920 1942 1916 1906 1772 1758 1737 1716 1774 851 638 1114
0 0 0 0 0 0 0 0 0 0 130 307 807 1032 1329 1694 1814 1820 1868 1811 1841 1976 2017 1821 1641 2359 2288 2070 1914 1415 666 572 751
0 0 0 0 0 0 0 0 30 0 179 509 691 782 1117 1652 1969 2129 2201 2221 2157 2203 2135 1954 1290 2215 2414 2326 1960 1720 977 719 520
488 874 93 48 361 510 568 587 579 516 505 626 744 963 1293 1657 1864 2103 2379 2550 2588 2584 2715 2604 2499 2410 2409 2401 2037 1514 691 353 85
1432 1393 1396 1374 1251 1808 1935 2575 2598 2193 1081 1093 1000 1175 1388 1539 1968 2093 2006 1682 2145 3013 3048 2929 2920 2684 2469 1769 1177 349 153 198 44
1843 1769 1779 1761 1552 1462 1590 1973 2327 2305 2409 2048 1637 1387 1248 827 702 843 838 993 981 422 1254 2031 1973 1182 993 158 97 0 0 0 0
672 679 666 635 633 768 1013 1352 1409 1788 1995 1839 1640 1342 868 530 619 536 601 690 595 425 6 1 4 0 0 0 0 0 0 0 0

GFSFLT1_con_mlcape_048.txt.gz
CAPE
275 435 549 532 645 604 407 293 632 892 1224 1589 1702 1590 1579 1685 1718 1198 1078 1192 1058 1117 997 740 870 1315 1677 2036 1847 2227 2203 1967 1587
0 65 465 634 689 756 760 708 756 1125 1384 1638 1652 1567 1740 1698 1749 1478 1128 1320 1717 1347 1390 992 1093 1272 1641 1679 1905 2175 2245 1982 1805
0 0 94 462 711 754 835 865 915 1152 1494 1677 1428 1456 1751 1648 1776 1826 1666 1783 1714 1693 1645 1578 1134 1505 1444 1735 1919 2216 2345 1978 1893
0 0 14 451 622 676 826 904 886 1149 1455 1575 1572 1555 1628 1707 1688 1686 1881 1712 1912 1989 1975 2053 1910 1680 1544 1532 1954 2463 2532 2286 1788
0 0 0 93 331 560 639 749 860 870 1101 1333 1450 1520 1728 1631 1672 1720 1677 1827 1939 2078 2005 2219 2249 2119 1910 1655 1848 2420 2514 2335 1767
0 0 0 0 0 6 199 580 941 741 851 1051 1254 1534 1533 1686 1673 1655 1741 1924 2006 2110 2082 2189 2134 2285 2277 1971 1695 1964 2357 2251 2117
0 0 0 0 0 0 0 152 920 1257 909 889 1117 1303 1464 1656 1851 1588 1704 2022 2100 2115 2228 2209 2241 2318 2422 2230 2139 1899 1893 2113 2124
0 0 0 0 4 23 199 303 858 1410 1134 998 973 1335 1485 1599 1841 2043 2010 2074 2173 2274 2330 2344 2265 2279 2390 2357 2138 1789 1881 2019 2083
0 0 0 0 0 0 315 604 895 1081 1161 1030 1073 1412 1523 1691 1957 2182 2072 2134 2244 2332 2340 2465 2468 2326 2317 2191 2054 1592 1226 1862 2043
0 0 0 0 0 0 97 713 800 941 1167 1028 1172 1373 1656 1836 2017 2133 2214 2233 2281 2324 2367 2404 2443 2383 2360 2294 2360 1663 1260 1120 1887
0 0 0 0 0 0 26 121 169 874 941 1176 1210 1422 1552 1916 2046 2090 2261 2323 2302 2425 2498 2394 2557 2574 2515 2492 2511 2028 1319 1061 1398
0 0 0 0 0 0 0 0 12 400 913 1049 1221 1489 1427 1771 2029 2078 2258 2276 2286 2606 2439 2512 2483 2472 2604 2763 2619 2121 1515 1137 1413
0 0 0 0 0 0 0 0 0 264 911 1128 1257 1469 1520 1860 2103 2267 2231 2315 2512 2477 2448 2336 2278 2286 2510 2682 2747 2646 1796 1178 1485
0 0 0 0 0 0 0 0 84 277 846 894 1030 1661 1755 2046 2342 2455 2501 2603 2567 2479 2403 2239 2302 2237 2350 2397 2428 2415 1881 1478 1508
0 0 0 0 0 0 0 112 257 393 543 510 1793 1837 1831 2143 2483 2387 2186 2602 2615 2615 2610 2562 2454 2438 2227 1997 1112 1458 1228 506 1436
283 177 40 0 1 0 45 316 462 273 547 1534 1652 1870 2129 2385 2530 2523 2248 2633 2693 2576 2654 2410 2516 2455 2355 2073 1755 851 887 1226 1217
680 622 93 278 64 49 756 1341 1337 1006 1325 1809 1967 2068 2158 2432 2760 2825 2712 2620 2706 2652 2598 2680 2464 2300 2092 1293 582 2319 2483 1728 919
895 545 1981 1366 1332 2018 2323 2399 2377 2050 1922 1949 1778 2093 2352 2619 2761 2703 3000 2568 2434 2947 2851 2683 2843 2857 2750 2356 2814 3100 2077 1690 946
1921 1857 1864 2148 2423 2914 3504 3294 2770 3086 2301 2199 2417 2624 2694 2691 2763 2956 3073 2374 1713 292 936 1744 1904 2502 3050 2469 1965 859 904 823 506
763 970 943 1190 1419 1582 1912 2072 2168 2232 2737 2945 2721 2315 2128 1919 1874 1592 1611 1971 2222 1778 268 175 429 524 807 833 289 3 1 0 0